SCP
0 0 0 0 0 0 0 0 0 0 0 0 0 0 0 0 0 0 0 0 0 0 0 0 0 0 0 0 0 0 0 -0 0 0 0 0 0 0 0 -0 0 0 0 0 -0 0 0
0 0 0 0 0 0 0 0 0 0 0 0 0 0 0 0 0 0 0 0 0 0 0 0 0 0 0 0 0 0 0 0 0 0 0 0 0 0 0 0 0 0 0 0 -0 0 -0
0 0 0 0 0 0 0 0 0 0 0 0 0 0 0 0 0 0 0 0 0 0 0 0 0 0 0 0 0 0 0 0 0 0 0 0 0 0 0 0 0 0 -0 -0 -0 0 0
0 0 0 0 0 0 0 0 0 0 0 0 0 0 0 0 0 0 0 0 0 0 0 0 0 0 0 0 0 0 0 0 0 0 0 0 0 0 0 0 0 0 -0 -0 0 0 0
0 0 0 0 0 0 0 0 0 0 0 0 0 0 0 0 0 0 0 0 0 0 0 0 0 0 0 0 0 0 0 0 0 0 0 0 0 0 0 0 0 0 0 0 0 0 0
0 0 0 0 0 0 0 0 0 0 0 0 0 0 0 0 -0 -0 -0 -0 0 0 0 0 0 0 0 0 0 0 0 0 0 0 0 0 0 0 0 0 0 0 0 0 0 0 0
0 0 0 0 0 0 0 0 0 0 0 0 0 0 0 -0 -0 -0 0 0 0 0 0 0 0 0 0 0 0 0 0 0 0 0 0 0 0 0 0 0 0 0 0 0 0 0 0
0 0 0 0 0 0 0 0 0 0 0 0 0 0 0 -0 -0 -0 0 -0 -0 0 0 0 0 0 0 0 0 0 0 0 0 0 0 0 0 0 0 0 0 0 0 0 0 0 0
0 0 0 0 0 0 0 0 0 0 0 0 0 -0 -0 -0 -0 0 0 0 0 0 0 0 0 0 0 0 0 0 0 0 0 0 0 0 0 0 0 0 0 0 0 0 0 0 0
0 0 0 0 0 0 0 0 0 0 0 0 0 0 0 -0 0 0 0 0 0 0 0 0 0 0 0 0 0 0 0 0 0 0 0 0 0 0 0 0 0 0 0 0 0 0 0
0 0 0 0 0 0 0 0 0 0 0 0 0 0 0 -0 0 -0 0 0 0 0 0 0 0 0 0 0 0 0 0 0 0 0 0 0 0 0 0 0 0 0 0 0 0 0 0
0 0 0 0 0 0 0 0 0 0 0 0 0 0 0 0 0 -0 0 0 0 0 0 0 0 0 0 0 0 0 0 0 0 0 0 0 0 0 0 0 0 0 0 0 0 0 0
0 0 0 0 0 0 0 0 0 0 0 0 0 -0 0 0 -0 0 0 0 0 0 0 0 0 0 0 0 0 0 0 0 0 0 0 0 0 0 0 0 0 0 0 0 0 0 0
0 0 0 0 0 0 0 0 0 0 0 0 -0 0 0 0 0 0 0 0 0 0 0 0 0 0 0 0 0 0 0 0 0 0 0 0 0 0 0 0 0 0 0 0 0 0 0
0 0 0 0 0 0 0 0 0 0 0 0 0 0 0 0 0 0 0 0 0 0 0 0 0 0 0 0 0 0 0 0 0 0 0 0 0 0 0 0 0 0 0 0 0 0 0
0 0 0 0 0 0 0 0 0 0 0 0 0 0 0 0 0 0 0 0 0 0 0 0 -0 0 0 0 0 0 0 0 0 0 0 0 0 0 0 0 0 0 0 0 0 0 0
0 0 0 0 0 0 0 0 0 0 0 0 0 0 0 0 0 0 0 0 0 0 0 0 0 0 0 0 0 0 0 0 0 0 0 0 0 0 0 0 0 0 0 0 0 0 0
0 0 0 0 0 0 0 0 0 0 0 0 0 0 0 0 0 0 0 0 0 0 0 0 0 0 -0 0 0 0 0 0 0 0 0 0 0 0 0 0 0 0 0 0 0 0 0
0 0 0 0 0 0 0 0 0 0 0 0 0 0 0 0 0 0 0 0 0 0 0 0 0 -0 -0 -0 0 0 0 0 0 0 0 0 0 0 0 0 0 0 0 0 0 0 0
0 0 0 0 0 0 0 0 0 0 0 0 0 0 0 0 0 0 0 0 0 0 0 0 0 0 0 -0 -0 0 0 0 0 0 0 0 0 0 0 0 0 0 0 0 0 0 0
0 0 0 0 0 0 0 0 0 0 0 0 0 0 0 0 0 0 0 0 0 0 0 0 0 0 0 0 0 -0 0 0 0 0 0 0 0 0 0 0 0 0 0 0 0 0 0
0 0 0 0 0 0 0 0 0 0 0 0 0 0 0 0 0 0 0 0 0 0 0 0 0 0 0 0 0 0 -0 -0 -0 0 0 0 0 0 0 0 0 0 0 0 0 0 0
0 0 0 0 0 0 0 0 0 0 0 0 0 0 0 0 0 0 0 0 0 0 0 0 0 0 0 0 0 -0 -0 0 0 0 0 0 0 0 0 0 0 0 0 0 0 0 0
0 0 0 0 0 0 0 0 0 0 0 0 0 0 0 0 0 0 0 0 0 0 0 0 0 0 0 0 0 0 0 0 0 0 0 0 0 0 0 0 0 0 0 0 0 0 0
0 0 0 0 0 0 0 0 0 0 0 0 0 0 0 0 0 0 0 0 0 0 0 0 0 0 0 0 0 0 0 0 0 0 0 0 0 0 0 0 0 0 0 0 0 0 0
0 0 0 0 0 0 0 0 0 0 0 0 0 0 0 0 0 0 0 0 0 0 -0 -0 -0 -0 -0 0 0 -0 0 0 0 0 0 0 0 0 0 0 0 0 0 0 0 0 0
0 0 0 0 0 0 0 0 0 0 0 0 0 0 0 0 0 0 0 0 0 0 0 -0 0 0 0 -0 0 0 0 0 0 0 0 0 0 0 0 0 0 0 0 0 0 0 0
0 0 0 0 0 0 0 0 0 0 0 0 0 0 0 0 -0 0 0 0 0 0 0 0 0 0 0 0 0 0 0 0 0 0 0 0 0 0 0 0 0 0 0 0 0 0 0
0 0 0 0 0 0 0 0 0 0 0 0 0 0 0 0 0 0 0 0 0 0 0 0 0 0 0 0 0 0 0 0 0 0 0 0 0 0 0 0 0 0 0 0 0 0 0
Wind_Speed_500mb
44 46 48 49 49 48 47 47 47 47 47 48 49 49 51 51 51 50 50 47 47 40 42 40 36 36 32 19 30 24 26 21 7 39 45 47 38 20 10 11 19 13 9 21 35 22 33
46 49 50 51 51 51 50 49 48 47 47 48 48 49 49 51 51 50 49 47 43 40 39 39 33 32 25 13 12 12 20 24 15 28 46 50 26 29 9 9 6 9 21 26 26 40 41
47 49 50 51 51 50 50 51 51 51 50 49 49 49 50 50 51 49 47 44 39 42 40 35 30 26 31 45 19 14 8 11 20 29 36 48 35 25 10 5 11 16 11 12 4 14 17
49 50 52 54 55 57 57 56 56 56 55 52 51 50 50 50 50 49 46 39 41 43 40 23 20 21 21 23 24 31 34 30 24 23 34 15 44 25 5 14 11 3 6 3 7 11 28
52 54 57 58 58 57 56 56 56 56 56 55 52 50 50 49 49 48 43 38 41 35 16 13 11 14 20 9 11 6 12 28 25 26 20 5 20 15 4 6 9 10 5 6 3 4 23
53 56 59 61 60 57 56 56 56 56 56 57 56 53 51 48 46 47 36 37 26 14 16 15 5 10 15 4 13 8 11 28 18 29 20 19 10 7 6 8 11 5 3 3 3 8 11
55 57 61 62 62 60 57 57 58 58 56 54 55 53 51 48 45 31 34 23 16 3 24 22 26 29 54 49 38 20 3 16 29 15 12 15 8 13 14 14 8 2 4 6 2 2 8
54 58 61 63 64 63 58 57 59 60 59 57 54 53 50 45 40 13 17 14 21 23 24 44 44 50 45 51 20 14 12 14 14 10 7 8 13 18 17 11 8 8 7 5 5 9 11
55 57 60 63 65 64 59 58 61 61 60 57 54 52 51 46 23 13 4 15 22 25 8 23 13 15 9 8 15 27 15 12 7 12 10 13 7 16 13 11 12 6 9 6 6 4 10
56 58 61 63 63 62 59 60 60 62 61 59 54 49 50 46 12 25 6 15 20 16 9 13 9 7 9 5 5 13 21 9 3 18 17 10 8 12 10 8 10 4 14 9 4 6 6
56 59 62 66 65 62 59 61 61 62 62 58 52 45 48 39 28 7 12 16 14 3 5 18 12 5 23 5 21 13 6 12 15 12 13 14 12 13 8 12 10 11 12 4 5 6 5
58 58 62 66 65 61 58 61 63 65 65 58 51 43 42 28 13 11 19 14 3 9 7 13 14 17 16 22 20 29 1 4 7 9 3 14 3 11 21 8 16 8 4 11 8 7 2
57 60 63 68 65 60 57 60 64 67 67 58 48 40 24 13 7 17 20 2 9 6 11 15 10 13 7 16 17 18 12 20 10 7 9 5 5 4 6 10 5 7 12 4 4 1 12
55 57 62 67 65 60 56 58 64 66 69 55 42 20 16 15 16 26 15 9 3 5 5 6 11 8 11 18 13 23 8 12 17 14 5 12 9 13 6 14 12 13 16 11 11 10 7
49 56 61 66 64 58 55 58 61 64 66 52 34 13 11 8 15 26 9 9 4 2 5 10 5 12 13 11 6 15 13 18 8 16 8 5 10 10 8 9 19 8 9 11 9 4 4
46 54 60 65 64 57 53 55 59 63 61 46 27 9 7 9 14 24 10 4 3 4 9 8 7 7 12 16 13 13 11 15 15 17 5 6 5 6 8 9 3 15 16 7 5 7 8
43 53 58 63 63 57 51 52 58 61 57 40 13 5 13 11 16 9 6 6 5 9 5 8 4 7 6 7 6 8 9 6 20 19 11 11 3 12 2 7 16 4 1 12 11 9 11
40 49 56 62 64 57 51 50 56 58 51 39 8 4 22 7 8 5 3 3 11 9 13 10 9 7 5 4 6 8 5 5 29 22 10 6 4 7 14 8 7 6 16 13 10 9 4
39 47 54 62 65 57 49 48 51 48 44 41 13 9 18 3 5 5 10 7 8 10 8 5 5 4 2 3 5 6 8 6 38 17 12 13 6 7 6 11 10 12 5 8 9 6 12
38 45 52 61 64 56 47 47 48 37 33 29 12 7 15 24 14 5 8 8 11 16 9 7 4 8 7 4 9 3 7 6 29 17 19 6 2 8 8 7 5 7 8 3 11 8 7
38 44 51 60 62 50 44 45 42 27 23 17 13 5 7 6 11 9 5 8 6 11 13 10 4 5 7 3 4 1 6 9 14 17 15 7 7 6 12 19 7 9 10 7 10 9 11
37 43 51 59 60 45 41 43 33 21 15 13 8 8 7 6 9 5 8 8 9 9 5 7 7 8 3 7 4 4 2 2 7 11 11 9 6 5 9 13 14 10 15 15 10 4 11
38 43 51 57 54 40 38 37 27 19 16 7 9 8 4 10 7 4 3 6 9 10 6 9 2 4 4 4 5 10 16 15 12 3 5 6 3 2 9 7 10 7 9 4 1 13 6
36 42 50 55 47 36 36 28 20 16 12 13 10 11 7 2 5 2 7 12 9 6 5 10 6 5 8 20 19 9 12 24 23 28 24 3 2 2 7 9 8 9 11 9 22 17 17
36 41 48 51 38 32 32 21 14 11 8 8 10 9 6 3 5 4 11 8 13 13 6 6 6 16 22 7 5 8 8 7 14 23 24 22 5 5 6 6 7 2 11 10 9 3 23
34 39 46 47 31 30 26 17 8 7 5 7 9 10 8 6 6 5 5 4 3 4 10 7 7 10 6 5 3 8 9 10 8 3 11 13 5 3 5 7 12 4 18 31 12 5 28
32 38 44 44 26 27 19 14 7 8 9 6 7 8 6 3 5 7 3 4 5 2 5 12 9 2 6 2 6 10 8 8 7 14 12 11 6 16 7 8 2 20 41 20 11 5 52
29 36 41 41 23 23 14 8 9 8 8 6 5 4 1 2 13 11 7 8 8 8 2 10 10 5 2 7 6 6 7 8 6 12 11 13 14 10 7 6 5 46 6 9 13 36 35
26 33 38 39 20 18 9 5 7 7 7 6 1 2 7 7 10 12 19 21 27 30 25 8 7 11 18 5 6 5 7 5 8 9 2 5 5 5 3 8 9 19 22 21 21 23 33
Wind_Direction_500mb
20 15 10 5 1 356 353 350 346 343 339 336 332 331 327 326 326 325 323 323 320 313 306 307 303 302 307 290 263 273 256 259 318 191 190 186 179 182 171 210 221 241 252 252 253 246 191
17 13 9 4 0 357 355 352 349 344 340 337 333 330 328 325 324 323 322 324 316 309 308 305 299 289 282 254 264 250 260 244 219 204 198 193 204 195 223 229 208 244 243 257 263 223 182
13 10 6 2 359 358 357 354 351 347 343 338 335 332 329 327 326 323 320 322 310 309 308 303 293 277 264 260 266 225 222 196 203 210 205 204 203 184 217 237 300 272 298 303 286 193 168
11 8 4 1 358 358 356 353 351 348 345 340 335 334 334 331 329 324 323 319 310 312 312 303 280 267 257 281 261 246 254 235 211 196 217 239 226 223 269 313 341 260 55 7 326 116 145
9 6 4 2 0 356 353 350 348 346 344 341 337 335 336 336 332 325 325 326 318 315 321 323 281 262 264 280 295 147 252 230 212 196 185 262 195 202 250 93 357 3 194 168 74 12 142
6 4 3 2 359 355 352 350 347 344 342 340 337 336 335 339 335 327 330 336 320 312 309 309 289 283 260 286 321 261 299 204 189 203 200 182 165 124 55 101 210 206 157 42 65 165 156
3 1 360 358 356 354 351 349 347 344 341 339 337 336 335 342 338 334 343 350 356 333 310 263 261 260 279 290 299 276 124 183 193 179 153 179 134 188 179 178 189 274 50 123 264 48 133
359 358 356 354 353 351 349 348 346 343 342 339 339 338 334 343 338 1 3 47 30 330 304 296 285 274 277 274 286 256 207 169 161 177 123 62 207 202 184 191 198 206 149 252 309 341 150
355 354 353 352 351 350 348 347 345 342 342 339 341 339 334 342 340 343 332 18 354 340 288 300 308 296 339 232 221 257 198 172 135 146 173 169 243 151 155 165 174 192 160 176 149 50 40
351 350 351 350 348 348 348 346 345 342 342 339 340 340 332 338 344 333 179 334 324 323 42 287 4 31 353 14 285 288 213 183 130 183 154 224 215 160 154 183 146 194 191 179 234 106 196
348 348 348 349 347 349 349 347 346 344 341 338 338 338 326 333 327 334 317 310 309 182 15 336 342 326 340 329 321 27 228 218 165 165 119 234 165 163 172 180 152 217 179 144 219 118 101
345 345 348 348 347 347 348 347 349 346 341 336 337 336 325 330 340 353 331 315 144 47 267 340 346 358 10 11 2 336 136 178 197 134 149 215 188 164 192 168 164 185 103 51 54 102 94
343 344 346 347 347 346 346 349 347 346 346 338 340 334 333 347 33 354 341 356 47 137 344 352 335 2 46 342 348 5 17 53 33 123 181 350 246 252 123 119 123 104 90 336 34 91 218
340 343 345 347 346 346 344 346 345 347 347 340 346 352 86 77 23 8 355 53 140 13 4 337 2 1 67 2 349 345 58 31 19 14 119 169 269 184 182 160 168 178 151 156 175 189 220
338 341 344 347 345 343 343 344 344 349 348 343 355 110 89 45 5 1 344 66 180 304 320 353 21 40 359 2 22 14 59 7 26 0 66 61 262 310 210 154 144 186 171 179 79 14 92
336 341 344 346 344 343 341 341 343 347 348 345 352 136 92 356 347 342 68 154 233 258 350 56 93 24 37 344 36 26 32 333 333 351 231 341 312 265 277 143 157 153 171 115 21 165 199
334 341 342 345 344 342 340 339 343 346 347 348 348 134 346 329 341 6 103 219 294 9 72 47 105 82 48 17 17 30 5 67 357 334 21 355 61 286 357 197 165 76 252 54 118 148 166
333 339 341 343 344 342 340 341 343 344 351 355 18 62 4 315 31 36 83 306 341 347 46 58 82 94 117 17 40 55 51 62 8 343 356 324 115 272 242 276 300 216 188 160 131 217 200
331 337 341 343 343 342 340 342 346 347 354 359 359 341 11 58 82 358 325 335 27 16 25 70 111 97 49 105 82 36 342 72 13 18 349 334 351 357 17 355 12 54 27 115 109 79 195
331 336 341 343 343 342 341 343 348 354 357 4 360 16 24 59 53 68 15 359 354 17 57 14 88 71 109 95 5 127 349 358 349 335 347 354 223 170 187 235 246 330 316 85 119 130 208
330 335 341 342 343 343 341 344 353 359 6 12 25 52 34 2 7 13 6 345 12 7 5 21 41 160 141 72 54 40 350 334 327 7 12 67 257 221 256 260 248 248 257 244 179 183 169
330 335 340 342 343 342 343 343 360 6 15 42 51 34 40 43 346 23 10 359 24 337 2 7 37 350 115 140 149 231 101 318 262 341 9 5 266 293 287 277 223 262 242 239 232 216 257
329 335 340 342 342 343 342 346 2 22 29 68 80 65 32 12 7 65 53 6 29 358 57 58 255 87 54 209 263 273 243 239 225 206 329 327 330 301 259 351 331 277 234 242 355 51 353
327 334 340 342 342 344 341 351 3 35 46 66 80 74 59 17 51 352 328 332 347 18 284 307 335 57 355 316 313 294 260 255 246 241 205 239 216 274 244 354 205 162 44 26 115 62 13
326 333 339 342 340 342 342 358 15 48 44 60 67 95 86 77 47 269 343 337 335 305 270 264 339 326 315 321 51 4 344 328 239 226 206 195 170 254 196 192 298 306 28 349 9 329 11
322 331 339 341 338 342 342 5 39 83 67 73 80 85 97 133 207 200 277 310 277 298 326 265 336 343 37 66 81 239 213 240 257 242 164 158 128 80 326 184 200 84 324 313 277 271 354
321 333 338 341 335 339 344 14 89 116 114 89 83 82 78 123 249 203 222 250 305 326 240 286 319 255 51 114 231 233 217 219 247 166 161 135 117 217 255 267 302 354 322 308 134 259 317
324 334 338 341 330 335 351 50 112 128 141 104 88 67 147 275 267 243 228 203 225 241 197 323 339 39 288 228 225 233 213 234 264 133 181 159 152 194 188 235 207 350 16 77 307 317 324
322 333 339 340 324 332 353 100 132 135 146 107 91 341 295 272 262 258 264 269 270 272 269 250 223 205 226 213 229 253 229 229 269 150 149 148 181 163 162 138 99 36 69 19 4 347 351
Wind_Speed_850mb
44 46 48 49 49 48 47 47 47 47 47 48 49 49 51 51 51 50 50 47 47 40 42 40 36 36 32 19 30 24 26 21 7 39 45 47 38 20 10 11 19 13 9 21 35 22 33
46 49 50 51 51 51 50 49 48 47 47 48 48 49 49 51 51 50 49 47 43 40 39 39 33 32 25 13 12 12 20 24 15 28 46 50 26 29 9 9 6 9 21 26 26 40 41
47 49 50 51 51 50 50 51 51 51 50 49 49 49 50 50 51 49 47 44 39 42 40 35 30 26 31 45 19 14 8 11 20 29 36 48 35 25 10 5 11 16 11 12 4 14 17
49 50 52 54 55 57 57 56 56 56 55 52 51 50 50 50 50 49 46 39 41 43 40 23 20 21 21 23 24 31 34 30 24 23 34 15 44 25 5 14 11 3 6 3 7 11 28
52 54 57 58 58 57 56 56 56 56 56 55 52 50 50 49 49 48 43 38 41 35 16 13 11 14 20 9 11 6 12 28 25 26 20 5 20 15 4 6 9 10 5 6 3 4 23
53 56 59 61 60 57 56 56 56 56 56 57 56 53 51 48 46 47 36 37 26 14 16 15 5 10 15 4 13 8 11 28 18 29 20 19 10 7 6 8 11 5 3 3 3 8 11
55 57 61 62 62 60 57 57 58 58 56 54 55 53 51 48 45 31 34 23 16 3 24 22 26 29 54 49 38 20 3 16 29 15 12 15 8 13 14 14 8 2 4 6 2 2 8
54 58 61 63 64 63 58 57 59 60 59 57 54 53 50 45 40 13 17 14 21 23 24 44 44 50 45 51 20 14 12 14 14 10 7 8 13 18 17 11 8 8 7 5 5 9 11
55 57 60 63 65 64 59 58 61 61 60 57 54 52 51 46 23 13 4 15 22 25 8 23 13 15 9 8 15 27 15 12 7 12 10 13 7 16 13 11 12 6 9 6 6 4 10
56 58 61 63 63 62 59 60 60 62 61 59 54 49 50 46 12 25 6 15 20 16 9 13 9 7 9 5 5 13 21 9 3 18 17 10 8 12 10 8 10 4 14 9 4 6 6
56 59 62 66 65 62 59 61 61 62 62 58 52 45 48 39 28 7 12 16 14 3 5 18 12 5 23 5 21 13 6 12 15 12 13 14 12 13 8 12 10 11 12 4 5 6 5
58 58 62 66 65 61 58 61 63 65 65 58 51 43 42 28 13 11 19 14 3 9 7 13 14 17 16 22 20 29 1 4 7 9 3 14 3 11 21 8 16 8 4 11 8 7 2
57 60 63 68 65 60 57 60 64 67 67 58 48 40 24 13 7 17 20 2 9 6 11 15 10 13 7 16 17 18 12 20 10 7 9 5 5 4 6 10 5 7 12 4 4 1 12
55 57 62 67 65 60 56 58 64 66 69 55 42 20 16 15 16 26 15 9 3 5 5 6 11 8 11 18 13 23 8 12 17 14 5 12 9 13 6 14 12 13 16 11 11 10 7
49 56 61 66 64 58 55 58 61 64 66 52 34 13 11 8 15 26 9 9 4 2 5 10 5 12 13 11 6 15 13 18 8 16 8 5 10 10 8 9 19 8 9 11 9 4 4
46 54 60 65 64 57 53 55 59 63 61 46 27 9 7 9 14 24 10 4 3 4 9 8 7 7 12 16 13 13 11 15 15 17 5 6 5 6 8 9 3 15 16 7 5 7 8
43 53 58 63 63 57 51 52 58 61 57 40 13 5 13 11 16 9 6 6 5 9 5 8 4 7 6 7 6 8 9 6 20 19 11 11 3 12 2 7 16 4 1 12 11 9 11
40 49 56 62 64 57 51 50 56 58 51 39 8 4 22 7 8 5 3 3 11 9 13 10 9 7 5 4 6 8 5 5 29 22 10 6 4 7 14 8 7 6 16 13 10 9 4
39 47 54 62 65 57 49 48 51 48 44 41 13 9 18 3 5 5 10 7 8 10 8 5 5 4 2 3 5 6 8 6 38 17 12 13 6 7 6 11 10 12 5 8 9 6 12
38 45 52 61 64 56 47 47 48 37 33 29 12 7 15 24 14 5 8 8 11 16 9 7 4 8 7 4 9 3 7 6 29 17 19 6 2 8 8 7 5 7 8 3 11 8 7
38 44 51 60 62 50 44 45 42 27 23 17 13 5 7 6 11 9 5 8 6 11 13 10 4 5 7 3 4 1 6 9 14 17 15 7 7 6 12 19 7 9 10 7 10 9 11
37 43 51 59 60 45 41 43 33 21 15 13 8 8 7 6 9 5 8 8 9 9 5 7 7 8 3 7 4 4 2 2 7 11 11 9 6 5 9 13 14 10 15 15 10 4 11
38 43 51 57 54 40 38 37 27 19 16 7 9 8 4 10 7 4 3 6 9 10 6 9 2 4 4 4 5 10 16 15 12 3 5 6 3 2 9 7 10 7 9 4 1 13 6
36 42 50 55 47 36 36 28 20 16 12 13 10 11 7 2 5 2 7 12 9 6 5 10 6 5 8 20 19 9 12 24 23 28 24 3 2 2 7 9 8 9 11 9 22 17 17
36 41 48 51 38 32 32 21 14 11 8 8 10 9 6 3 5 4 11 8 13 13 6 6 6 16 22 7 5 8 8 7 14 23 24 22 5 5 6 6 7 2 11 10 9 3 23
34 39 46 47 31 30 26 17 8 7 5 7 9 10 8 6 6 5 5 4 3 4 10 7 7 10 6 5 3 8 9 10 8 3 11 13 5 3 5 7 12 4 18 31 12 5 28
32 38 44 44 26 27 19 14 7 8 9 6 7 8 6 3 5 7 3 4 5 2 5 12 9 2 6 2 6 10 8 8 7 14 12 11 6 16 7 8 2 20 41 20 11 5 52
29 36 41 41 23 23 14 8 9 8 8 6 5 4 1 2 13 11 7 8 8 8 2 10 10 5 2 7 6 6 7 8 6 12 11 13 14 10 7 6 5 46 6 9 13 36 35
26 33 38 39 20 18 9 5 7 7 7 6 1 2 7 7 10 12 19 21 27 30 25 8 7 11 18 5 6 5 7 5 8 9 2 5 5 5 3 8 9 19 22 21 21 23 33
Wind_Direction_850mb
20 15 10 5 1 356 353 350 346 343 339 336 332 331 327 326 326 325 323 323 320 313 306 307 303 302 307 290 263 273 256 259 318 191 190 186 179 182 171 210 221 241 252 252 253 246 191
17 13 9 4 0 357 355 352 349 344 340 337 333 330 328 325 324 323 322 324 316 309 308 305 299 289 282 254 264 250 260 244 219 204 198 193 204 195 223 229 208 244 243 257 263 223 182
13 10 6 2 359 358 357 354 351 347 343 338 335 332 329 327 326 323 320 322 310 309 308 303 293 277 264 260 266 225 222 196 203 210 205 204 203 184 217 237 300 272 298 303 286 193 168
11 8 4 1 358 358 356 353 351 348 345 340 335 334 334 331 329 324 323 319 310 312 312 303 280 267 257 281 261 246 254 235 211 196 217 239 226 223 269 313 341 260 55 7 326 116 145
9 6 4 2 0 356 353 350 348 346 344 341 337 335 336 336 332 325 325 326 318 315 321 323 281 262 264 280 295 147 252 230 212 196 185 262 195 202 250 93 357 3 194 168 74 12 142
6 4 3 2 359 355 352 350 347 344 342 340 337 336 335 339 335 327 330 336 320 312 309 309 289 283 260 286 321 261 299 204 189 203 200 182 165 124 55 101 210 206 157 42 65 165 156
3 1 360 358 356 354 351 349 347 344 341 339 337 336 335 342 338 334 343 350 356 333 310 263 261 260 279 290 299 276 124 183 193 179 153 179 134 188 179 178 189 274 50 123 264 48 133
359 358 356 354 353 351 349 348 346 343 342 339 339 338 334 343 338 1 3 47 30 330 304 296 285 274 277 274 286 256 207 169 161 177 123 62 207 202 184 191 198 206 149 252 309 341 150
355 354 353 352 351 350 348 347 345 342 342 339 341 339 334 342 340 343 332 18 354 340 288 300 308 296 339 232 221 257 198 172 135 146 173 169 243 151 155 165 174 192 160 176 149 50 40
351 350 351 350 348 348 348 346 345 342 342 339 340 340 332 338 344 333 179 334 324 323 42 287 4 31 353 14 285 288 213 183 130 183 154 224 215 160 154 183 146 194 191 179 234 106 196
348 348 348 349 347 349 349 347 346 344 341 338 338 338 326 333 327 334 317 310 309 182 15 336 342 326 340 329 321 27 228 218 165 165 119 234 165 163 172 180 152 217 179 144 219 118 101
345 345 348 348 347 347 348 347 349 346 341 336 337 336 325 330 340 353 331 315 144 47 267 340 346 358 10 11 2 336 136 178 197 134 149 215 188 164 192 168 164 185 103 51 54 102 94
343 344 346 347 347 346 346 349 347 346 346 338 340 334 333 347 33 354 341 356 47 137 344 352 335 2 46 342 348 5 17 53 33 123 181 350 246 252 123 119 123 104 90 336 34 91 218
340 343 345 347 346 346 344 346 345 347 347 340 346 352 86 77 23 8 355 53 140 13 4 337 2 1 67 2 349 345 58 31 19 14 119 169 269 184 182 160 168 178 151 156 175 189 220
338 341 344 347 345 343 343 344 344 349 348 343 355 110 89 45 5 1 344 66 180 304 320 353 21 40 359 2 22 14 59 7 26 0 66 61 262 310 210 154 144 186 171 179 79 14 92
336 341 344 346 344 343 341 341 343 347 348 345 352 136 92 356 347 342 68 154 233 258 350 56 93 24 37 344 36 26 32 333 333 351 231 341 312 265 277 143 157 153 171 115 21 165 199
334 341 342 345 344 342 340 339 343 346 347 348 348 134 346 329 341 6 103 219 294 9 72 47 105 82 48 17 17 30 5 67 357 334 21 355 61 286 357 197 165 76 252 54 118 148 166
333 339 341 343 344 342 340 341 343 344 351 355 18 62 4 315 31 36 83 306 341 347 46 58 82 94 117 17 40 55 51 62 8 343 356 324 115 272 242 276 300 216 188 160 131 217 200
331 337 341 343 343 342 340 342 346 347 354 359 359 341 11 58 82 358 325 335 27 16 25 70 111 97 49 105 82 36 342 72 13 18 349 334 351 357 17 355 12 54 27 115 109 79 195
331 336 341 343 343 342 341 343 348 354 357 4 360 16 24 59 53 68 15 359 354 17 57 14 88 71 109 95 5 127 349 358 349 335 347 354 223 170 187 235 246 330 316 85 119 130 208
330 335 341 342 343 343 341 344 353 359 6 12 25 52 34 2 7 13 6 345 12 7 5 21 41 160 141 72 54 40 350 334 327 7 12 67 257 221 256 260 248 248 257 244 179 183 169
330 335 340 342 343 342 343 343 360 6 15 42 51 34 40 43 346 23 10 359 24 337 2 7 37 350 115 140 149 231 101 318 262 341 9 5 266 293 287 277 223 262 242 239 232 216 257
329 335 340 342 342 343 342 346 2 22 29 68 80 65 32 12 7 65 53 6 29 358 57 58 255 87 54 209 263 273 243 239 225 206 329 327 330 301 259 351 331 277 234 242 355 51 353
327 334 340 342 342 344 341 351 3 35 46 66 80 74 59 17 51 352 328 332 347 18 284 307 335 57 355 316 313 294 260 255 246 241 205 239 216 274 244 354 205 162 44 26 115 62 13
326 333 339 342 340 342 342 358 15 48 44 60 67 95 86 77 47 269 343 337 335 305 270 264 339 326 315 321 51 4 344 328 239 226 206 195 170 254 196 192 298 306 28 349 9 329 11
322 331 339 341 338 342 342 5 39 83 67 73 80 85 97 133 207 200 277 310 277 298 326 265 336 343 37 66 81 239 213 240 257 242 164 158 128 80 326 184 200 84 324 313 277 271 354
321 333 338 341 335 339 344 14 89 116 114 89 83 82 78 123 249 203 222 250 305 326 240 286 319 255 51 114 231 233 217 219 247 166 161 135 117 217 255 267 302 354 322 308 134 259 317
324 334 338 341 330 335 351 50 112 128 141 104 88 67 147 275 267 243 228 203 225 241 197 323 339 39 288 228 225 233 213 234 264 133 181 159 152 194 188 235 207 350 16 77 307 317 324
322 333 339 340 324 332 353 100 132 135 146 107 91 341 295 272 262 258 264 269 270 272 269 250 223 205 226 213 229 253 229 229 269 150 149 148 181 163 162 138 99 36 69 19 4 347 351